Simultaneous Nadir Overpasses (SNOs) Predictions

Prediction of SNOs between NOAA-19 and TERRA Satellite Orbit:

Table of predicted SNOs for the next 14.0 days since TLE Epoch: 7/28/2017
Index Date (NOAA-19) Time (NOAA-19) Lat,Lon (NOAA-19) SZA (NOAA-19 ) Date (TERRA) Time (TERRA) Lat,Lon (TERRA) SZA (TERRA ) Distance(km) Time Diff (sec)
1 07/29/2017 22:28:59 75.73,-145.39 57.38 07/29/2017 22:29:07 75.70,-145.43 57.35 3.14 8
2 07/29/2017 23:19:49 -75.51, 22.61 122.79 07/29/2017 23:18:37 -75.58, 21.86 122.78 22.20 72
3 08/01/2017 04:02:41 -75.75, -48.82 122.05 08/01/2017 04:02:52 -75.76, -48.71 122.04 3.26 11
4 08/01/2017 04:53:34 75.13, 120.44 57.46 08/01/2017 04:52:29 75.18, 117.31 57.33 89.23 65
5 08/03/2017 09:36:34 75.75, 47.77 58.53 08/03/2017 09:36:36 75.75, 47.85 58.54 2.22 2
6 08/03/2017 10:27:20 -75.33,-143.55 121.80 08/03/2017 10:26:11 -75.39,-145.56 121.86 56.95 69
7 08/05/2017 15:10:16 -75.75, 144.42 120.87 08/05/2017 15:10:22 -75.76, 144.42 120.86 1.47 6
8 08/07/2017 20:44:08 75.74,-118.97 59.76 08/07/2017 20:44:06 75.75,-119.04 59.76 2.24 2
9 08/10/2017 01:27:09 76.40, 167.97 60.94 08/10/2017 01:28:13 76.30, 171.59 61.03 95.62 64
10 08/10/2017 02:17:51 -75.75, -22.38 119.59 08/10/2017 02:17:52 -75.75, -22.48 119.60 2.91 1




NCC Satellite Simultaneous Nadir Overpasses (SNOs) Prediction Service
